Location: Newark
(30.0333°N, 31.2167°E)
Time: 21:58:18
(UTC+00:00)

Tiros 1 despin weight - Pass Details

Date: 25 January 2020
Orbit: 594 x 642 km, 48.2° (Epoch: 20 February)

Event Time Altitude Azimuth Distance (km) Brightness Sun altitude
Rises 14:49:03 0° 319° (NW) 2,919 ? 6.4°
Reaches altitude 10° 14:51:35 10° 330° (NNW) 2,016 ? 5.9°
Maximum altitude 14:55:44 31° 33° (NNE) 1,108 ? 5.1°
Drops below altitude 10° 14:59:54 10° 96° (E) 2,024 ? 4.3°
Sets 15:02:27 0° 107° (ESE) 2,932 ? 3.8°
